Preview of NWS' New Version of Forecast
This preview is not operational and should not be used for support decisions.

Regional Weather Roundup (RWR)

Issued by National Weather Service (NWS)

                            
000
ASUS43 KLSX 230107
RWRMO 

WEATHER SUMMARY FOR MISSOURI
NATIONAL WEATHER SERVICE SPRINGFIELD MO
800 PM CDT FRI MAR 22 2019

NOTE: "FAIR" INDICATES FEW OR NO CLOUDS BELOW 12,000 FEET WITH NO
       SIGNIFICANT WEATHER AND/OR OBSTRUCTIONS TO VISIBILITY.
       CURRENT SKY AND/OR WEATHER CONDITIONS ARE NOT AVAILABLE FOR
       CHILLICOTHE AND FARMINGTON.

MOZ001>031-035>038-043-044-053-054-230200-
...NORTHERN AND WESTERN MISSOURI...
  
CITY           SKY/WX    TMP DP  RH WIND       PRES   REMARKS
KANSAS CTY INT CLOUDY    57  32  38 NE8       30.09F                  
KANSAS C DTWN  MOCLDY    63  32  31 E8        30.08F                  
LEE'S SUMMIT   CLOUDY    59  34  39 E9        30.10F                  
ST JOSEPH        N/A    N/A N/A N/A MISG      30.11F                  
CHILLICOTHE      N/A     51  34  52 CALM      30.15S                  
KIRKSVILLE     CLEAR     50  28  42 NE6       30.17R                  
     
$$
MOZ066>068-077>081-088>096-101>105-230200-
...SOUTHWEST MISSOURI...
  
CITY           SKY/WX    TMP DP  RH WIND       PRES   REMARKS
SPRINGFIELD    PTCLDY    59  32  36 NE5       30.09F                  
JOPLIN         CLOUDY    59  32  36 NE3       30.09S                  
BRANSON        MOCLDY    55  28  35 CALM      30.10F                  
               
$$
MOZ032>034-039>042-045>050-055>058-069>072-230200-
...CENTRAL MISSOURI...  
  
CITY           SKY/WX    TMP DP  RH WIND       PRES   REMARKS
COLUMBIA       CLEAR     54  27  35 NE7       30.14S                  
JEFFERSON CITY CLEAR     61  23  23 NE8       30.13S                  
ROLLA          CLEAR     52  25  35 CALM      30.14R                  
SEDALIA        PTCLDY    56  26  31 NE3       30.13S                  
WHITEMAN AFB   MOCLDY    53  29  40 NE3       30.08F                  
WARRENSBURG    CLOUDY    55  30  38 NE6       30.12F                  
OSAGE BEACH    CLEAR     58  27  30 NE5       30.13S                  
               
$$
MOZ051-052-059>065-230200-
...EAST CENTRAL MISSOURI...
  
CITY           SKY/WX    TMP DP  RH WIND       PRES   REMARKS
ST LOUIS INTL  PTCLDY    56  29  35 NE7       30.16R                  
SPIRIT OF STL  CLEAR     50  31  48 CALM      30.15R                  
ST CHARLES     CLEAR     52  31  44 NE6       30.16R                  
                   
$$
MOZ072>076-082>087-097>100-106>115-230200-
...SOUTH CENTRAL AND SOUTHEAST MISSOURI...
  
CITY           SKY/WX    TMP DP  RH WIND       PRES   REMARKS
CAPE GIRARDEAU FAIR      55  29  36 CALM      30.12R                  
FARMINGTON     CLEAR     52  27  38 NE8       30.14R                  
POPLAR BLUFF   FAIR      61  36  39 E8        30.11R                  
WEST PLAINS    PTCLDY    59  28  30 CALM      30.12R                  
                                       
$$